Location: McMath-Hulbert Observatory
(42.6964°N, 83.3187°W)
Time: 09:52:37
(UTC-04:00)

Daily predictions for brighter satellites

Satellite Brightness Start Highest point End
(mag) Time Altitude Azimuth Time Altitude Azimuth Time Altitude Azimuth
Envisat 3.4 21:42:40 10° S 21:47:43 67° WSW 21:52:47 10° NNW
Cosmos 1727 Rocket 4.1 21:41:51 10° S 21:48:04 63° E 21:54:20 10° NNE
Helios 1A 3.1 21:44:47 10° S 21:48:55 79° WSW 21:53:06 10° NNW
Cosmos 1340 Rocket 3.2 21:46:29 10° SSE 21:50:18 45° E 21:54:11 10° NNE
Helios 1B rocket 2.4 21:47:13 10° NNE 21:51:24 85° ESE 21:55:32 10° SSW
Cosmos 1242 Rocket 4.1 21:49:49 10° NNE 21:52:46 22° ENE 21:55:42 10° SE
Meteor 2-5 Rocket 4.4 21:48:13 10° SSW 21:53:58 62° WNW 21:59:39 10° N
USA 32 4.1 21:50:03 10° S 21:55:12 61° E 22:00:23 10° NNE
Terra 4.0 21:55:33 10° ENE 21:57:07 12° ENE 21:58:42 10° NE
Cosmos 1980 4.3 21:54:41 10° NNW 22:00:16 58° WSW 22:05:48 10° S
Cosmos 1140 Rocket 3.4 21:56:51 10° SSW 22:02:01 78° ESE 22:07:11 10° NNE
Cosmos 1867 4.2 22:02:34 10° S 22:07:22 33° ESE 22:12:13 10° NE
ATLAS 5 CENTAUR R/B 2.1 22:03:04 10° S 22:07:26 43° ESE 22:12:10 10° NE
Atlas Centaur 2 3.1 22:06:51 10° SSW 22:08:15 12° S 22:09:38 10° SSE
Lacrosse 4 Rocket 2.5 22:05:18 10° SW 22:09:25 50° WNW 22:13:40 10° NNE
Cosmos 2237 Rocket 2.9 22:05:29 10° NW 22:10:55 51° WSW 22:16:19 10° S
Tiangong 1 0.9 22:12:07 10° WSW 22:14:49 49° SSE 22:17:32 10° E
Cosmos 1726 3.8 22:14:41 10° NNE 22:17:23 19° ENE 22:19:32 12° ESE
YAOGAN 6 3.5 22:15:38 10° S 22:19:07 47° W 22:22:41 10° NNW
Milstar 3 Cent rocket 4.4 22:13:31 10° WSW 22:20:14 32° S 22:31:25 12° SE
Cosmos 1076 Rocket 3.8 22:17:04 10° S 22:21:18 51° E 22:25:33 10° NNE
Okean 3 Rocket 3.6 22:18:52 10° S 22:23:22 77° E 22:27:52 10° N
Cosmos 2227 Rocket 3.4 22:21:07 10° SW 22:26:32 46° WNW 22:31:59 10° NNE
SL-08 RB Rocket 4.0 22:24:05 14° SE 22:27:50 52° ENE 22:32:18 10° N
Cosmos 1908 3.2 22:24:52 10° N 22:28:46 69° E 22:31:57 15° SSE
Cosmos 1850 Rocket 3.9 22:24:22 10° SSW 22:29:30 79° ESE 22:34:43 10° NNE
Cosmos 1356 Rocket 3.6 22:26:00 10° S 22:30:08 58° E 22:34:22 10° NNE
Cosmos 2221 2.6 22:26:38 10° N 22:31:02 81° W 22:35:20 10° S
SL-16 R/B 2.3 22:28:01 10° NNW 22:33:43 79° WSW 22:38:38 14° SSE
Cosmos 1674 2.6 22:30:02 10° S 22:33:48 73° E 22:37:34 10° NNE
H-2A R/B 2.5 22:31:57 15° SE 22:36:08 53° ENE 22:41:24 10° N
YAOGAN 11 4.1 22:34:30 15° SSE 22:38:14 80° ENE 22:42:47 10° N
KORONAS-FOTON 3.9 22:37:55 15° S 22:40:57 57° E 22:44:42 10° NNE
USA 234 3.2 22:35:54 10° NE 22:42:28 78° SE 22:49:00 10° SW
Cosmos 1818 3.6 22:37:44 10° NW 22:43:12 82° WSW 22:47:13 19° SSE
SPOT 5 2.9 22:39:46 15° SSE 22:43:42 86° ENE 22:48:46 10° NNW
ARGOS 3.2 22:39:06 13° SSE 22:43:56 88° WSW 22:49:23 10° NNW
USA 245 2.9 22:42:55 20° SSE 22:45:00 88° WSW 22:48:54 10° NNW
Cosmos 1766 Rocket 3.5 22:41:52 14° S 22:45:30 63° E 22:49:48 10° NNE
Lacrosse 5 2.7 22:42:07 10° NW 22:46:58 43° NE 22:51:05 14° ESE
ERS-1 Rocket 3.8 22:42:10 10° S 22:47:01 49° W 22:51:55 10° NNW
Cosmos 2228 Rocket 4.0 22:45:14 10° N 22:49:31 37° ENE 22:51:56 21° SE
Cosmos 1741 Rocket 4.4 22:47:55 10° SSW 22:53:13 68° WNW 22:58:32 10° NNE
Cosmos 1328 Rocket 4.1 22:50:28 10° N 22:54:38 43° ENE 22:56:48 24° SE
Cosmos 2061 Rocket 4.1 22:49:02 10° N 22:55:26 83° W 23:01:00 14° S
Cosmos 1515 Rocket 4.5 22:52:56 10° N 22:56:53 33° ENE 22:58:48 23° ESE
Cosmos 2100 Rocket 4.3 22:51:20 10° NNW 22:57:36 68° W 23:03:34 11° S
RESURS DK-1 3.0 22:54:29 10° NNW 22:58:30 45° ENE 23:00:38 24° ESE
Cosmos 1459 Rocket 4.3 22:54:08 10° NNW 23:00:25 69° W 23:06:01 13° S
Cosmos 371 Rocket 3.9 22:57:12 10° N 23:01:48 43° ENE 23:04:22 23° ESE
Cosmos 1743 Rocket 4.0 23:00:07 25° SSE 23:02:08 42° E 23:06:14 10° NNE
H-2A R/B 3.0 23:00:30 22° ESE 23:02:34 34° ENE 23:06:25 10° N
Abrixas rocket 3.7 22:59:56 10° NW 23:02:56 33° NNE 23:05:44 11° ENE
Meteor 2-2 Rocket 4.3 22:57:29 10° N 23:03:14 68° ENE 23:07:00 23° SSE
DMSP B5D2-2 4.2 22:58:56 10° NNE 23:04:06 56° E 23:07:30 21° S
Cosmos 2227 4.2 23:01:51 10° SSW 23:07:34 72° ESE 23:13:16 10° NNE
Cosmos 2123 Rocket 3.9 23:05:26 17° S 23:10:17 73° E 23:16:29 10° NNE
Cosmos 1151 Rocket 3.9 23:06:17 10° N 23:10:21 36° ENE 23:12:00 26° ESE
EO 1 Delta rocket 3.8 23:08:12 21° S 23:11:24 82° W 23:16:02 10° N
Cosmos 1356 4.5 23:17:21 29° E 23:17:30 29° E 23:20:34 10° NNE
Landsat 7 3.8 23:16:33 27° SSE 23:19:11 87° WSW 23:23:58 10° NNW
SL-14 R/B 3.2 23:19:16 30° S 23:21:08 80° E 23:25:06 10° N
PSLV R/B 4.1 23:23:59 30° ENE 23:24:00 30° ENE 23:26:34 10° N
Cosmos 1328 3.7 23:22:19 30° S 23:24:13 85° E 23:28:16 10° N
SL-19 R/B 4.3 23:19:29 10° NNE 23:24:42 53° ESE 23:27:22 28° SSE
CZ-4 R/B 4.4 23:20:20 10° NNE 23:24:57 41° E 23:26:26 32° SE
Cosmos 2084 4.3 23:21:31 10° WSW 23:25:20 45° NW 23:29:03 10° NNE
IGS 5A 3.4 23:26:45 37° SSE 23:28:19 77° ENE 23:32:29 10° N
SPOT 1/Viking Rocket 4.2 23:27:37 20° SSW 23:31:00 47° W 23:35:59 10° NNW
Cosmos 1814 Rocket 4.0 23:27:07 10° NNW 23:32:31 88° ENE 23:34:58 33° SSE
Cosmos 1725 Rocket 4.1 23:26:44 10° N 23:33:00 77° W 23:36:52 25° S
Terra 1.8 23:31:59 33° SSE 23:34:08 88° W 23:38:55 10° NNW
ERBS 3.3 23:31:15 10° NW 23:34:28 39° NE 23:35:29 30° E
Cosmos 1486 Rocket 4.0 23:33:16 29° S 23:35:50 63° ESE 23:41:06 10° NNE
Cosmos 1300 3.2 23:34:36 10° NNW 23:38:22 54° W 23:39:44 34° SSW
Cosmos 2263 Rocket 2.5 23:38:53 34° SSE 23:40:46 47° ESE 23:46:06 10° NE
BREEZE-M DEB (TANK) 4.1 23:41:18 10° WNW 23:43:57 36° N 23:51:33 10° ENE
deb Chang Zheng 4 3.5 23:41:23 10° NNE 23:45:46 74° ESE 23:47:09 42° S
Cosmos 1626 2.2 23:46:13 54° ESE 23:46:31 56° E 23:50:11 10° NNE
Cosmos 841 Rocket 3.5 23:42:45 10° NNW 23:48:01 75° ENE 23:49:58 39° SE
Tiangong 1 2.1 23:47:34 10° W 23:49:18 34° W 23:49:18 34° W
Cosmos 220 Rocket 4.2 23:48:02 27° SSW 23:50:25 73° WNW 23:54:50 10° NNE
Cosmos 332 Rocket 4.3 23:46:03 10° NNW 23:50:49 53° WSW 23:52:42 33° SSW
ATLAS 5 CENTAUR R/B 3.9 23:48:08 10° W 23:52:16 29° NW 23:56:47 10° NNE
Cosmos 1763 Rocket 3.4 23:47:16 10° NNW 23:52:24 80° WSW 23:54:12 41° S
Cosmos 1726 3.9 23:49:36 10° NNW 23:52:42 26° W 23:54:10 20° SW
Sich 1 4.5 23:53:19 22° E 23:53:23 22° E 23:56:42 10° NE
Spot 4 3.8 23:52:27 42° SSE 23:54:05 76° ENE 23:58:58 10° N
